Wetterdaten: Samstag, 18.10.2014
Datum Zeit Temp. A. Feuchte A. Luftdruck Regen Wind Richtung Richtung Sonnenschein ET UV Solar Taupunkt Windchill Windben Empfang
18.10.2014 00:00 10,6 C 84 % 1021,1 hPa 0,0 l/m 0,0 km/h (0 Bft) SW 228 0 min 0,000 mm 0,0 UV-I 0 W/m 8,0 C 10,6 C 0,0 km/h (0 Bft) 0,00 %
18.10.2014 00:15 10,4 C 85 % 1021,0 hPa 0,0 l/m 0,0 km/h (0 Bft) S-SW 192 0 min 0,000 mm 0,0 UV-I 0 W/m 8,0 C 10,4 C 0,0 km/h (0 Bft) 0,00 %
18.10.2014 00:30 10,2 C 85 % 1020,9 hPa 0,0 l/m 0,0 km/h (0 Bft) S 177 0 min 0,000 mm 0,0 UV-I 0 W/m 7,8 C 10,2 C 0,0 km/h (0 Bft) 0,00 %
18.10.2014 00:45 10,1 C 85 % 1021,1 hPa 0,0 l/m 0,0 km/h (0 Bft) S 188 0 min 0,000 mm 0,0 UV-I 0 W/m 7,7 C 10,1 C 0,0 km/h (0 Bft) 0,00 %
18.10.2014 01:00 9,9 C 85 % 1021,0 hPa 0,0 l/m 0,0 km/h (0 Bft) S 185 0 min 0,000 mm 0,0 UV-I 0 W/m 7,5 C 9,9 C 0,0 km/h (0 Bft) 0,00 %
18.10.2014 01:15 9,7 C 85 % 1021,3 hPa 0,0 l/m 0,0 km/h (0 Bft) SO 141 0 min 0,000 mm 0,0 UV-I 0 W/m 7,3 C 9,7 C 0,0 km/h (0 Bft) 0,00 %
18.10.2014 01:30 9,5 C 86 % 1021,5 hPa 0,0 l/m 0,0 km/h (0 Bft) SO 141 0 min 0,000 mm 0,0 UV-I 0 W/m 7,3 C 9,5 C 0,0 km/h (0 Bft) 0,00 %
18.10.2014 01:45 9,3 C 86 % 1021,3 hPa 0,0 l/m 0,0 km/h (0 Bft) SO 141 0 min 0,000 mm 0,0 UV-I 0 W/m 7,1 C 9,3 C 0,0 km/h (0 Bft) 0,00 %
18.10.2014 02:00 9,2 C 86 % 1021,5 hPa 0,0 l/m 0,0 km/h (0 Bft) S 173 0 min 0,000 mm 0,0 UV-I 0 W/m 7,0 C 9,2 C 0,0 km/h (0 Bft) 0,00 %
18.10.2014 02:15 8,8 C 86 % 1021,6 hPa 0,0 l/m 0,0 km/h (0 Bft) S 176 0 min 0,000 mm 0,0 UV-I 0 W/m 6,6 C 8,8 C 0,0 km/h (0 Bft) 0,00 %
18.10.2014 02:30 8,7 C 86 % 1021,9 hPa 0,0 l/m 0,0 km/h (0 Bft) S 182 0 min 0,000 mm 0,0 UV-I 0 W/m 6,5 C 8,7 C 0,0 km/h (0 Bft) 0,00 %
18.10.2014 02:45 8,7 C 86 % 1021,7 hPa 0,0 l/m 0,0 km/h (0 Bft) S 178 0 min 0,000 mm 0,0 UV-I 0 W/m 6,5 C 8,7 C 0,0 km/h (0 Bft) 0,00 %
18.10.2014 03:00 8,8 C 86 % 1021,9 hPa 0,0 l/m 0,0 km/h (0 Bft) S 183 0 min 0,000 mm 0,0 UV-I 0 W/m 6,6 C 8,8 C 0,0 km/h (0 Bft) 0,00 %
18.10.2014 03:15 8,8 C 86 % 1022,0 hPa 0,0 l/m 0,0 km/h (0 Bft) S 185 0 min 0,000 mm 0,0 UV-I 0 W/m 6,6 C 8,8 C 0,0 km/h (0 Bft) 0,00 %
18.10.2014 03:30 8,9 C 86 % 1022,0 hPa 0,0 l/m 0,0 km/h (0 Bft) S-SW 211 0 min 0,000 mm 0,0 UV-I 0 W/m 6,7 C 8,9 C 0,0 km/h (0 Bft) 0,00 %
18.10.2014 03:45 8,0 C 87 % 1022,2 hPa 0,3 l/m 0,0 km/h (0 Bft) O 83 0 min 0,000 mm 0,0 UV-I 0 W/m 6,0 C 8,0 C 0,0 km/h (0 Bft) 0,00 %
18.10.2014 04:00 8,0 C 87 % 1022,4 hPa 0,0 l/m 0,0 km/h (0 Bft) O-NO 76 0 min 0,000 mm 0,0 UV-I 0 W/m 6,0 C 8,0 C 0,0 km/h (0 Bft) 0,00 %
18.10.2014 04:15 8,1 C 87 % 1022,1 hPa 0,0 l/m 0,0 km/h (0 Bft) S 191 0 min 0,000 mm 0,0 UV-I 0 W/m 6,1 C 8,1 C 0,0 km/h (0 Bft) 0,00 %
18.10.2014 04:30 8,0 C 87 % 1022,1 hPa 0,0 l/m 0,0 km/h (0 Bft) S-SW 213 0 min 0,000 mm 0,0 UV-I 0 W/m 6,0 C 8,0 C 0,0 km/h (0 Bft) 0,00 %
18.10.2014 04:45 7,6 C 88 % 1022,4 hPa 0,0 l/m 0,0 km/h (0 Bft) S-SW 195 0 min 0,000 mm 0,0 UV-I 0 W/m 5,7 C 7,6 C 0,0 km/h (0 Bft) 0,00 %
18.10.2014 05:00 7,1 C 88 % 1022,6 hPa 0,0 l/m 0,0 km/h (0 Bft) SW 216 0 min 0,000 mm 0,0 UV-I 0 W/m 5,2 C 7,1 C 0,0 km/h (0 Bft) 0,00 %
18.10.2014 05:15 7,0 C 88 % 1022,8 hPa 0,0 l/m 0,0 km/h (0 Bft) S 191 0 min 0,000 mm 0,0 UV-I 0 W/m 5,2 C 7,0 C 0,0 km/h (0 Bft) 0,00 %
18.10.2014 05:30 6,8 C 87 % 1022,9 hPa 0,0 l/m 0,0 km/h (0 Bft) S-SO 164 0 min 0,000 mm 0,0 UV-I 0 W/m 4,8 C 6,8 C 0,0 km/h (0 Bft) 0,00 %
18.10.2014 05:45 6,6 C 87 % 1023,3 hPa 0,0 l/m 0,0 km/h (0 Bft) S-SW 192 0 min 0,000 mm 0,0 UV-I 0 W/m 4,6 C 6,6 C 0,0 km/h (0 Bft) 0,00 %
18.10.2014 06:00 6,6 C 87 % 1023,3 hPa 0,0 l/m 0,0 km/h (0 Bft) S-SO 158 0 min 0,000 mm 0,0 UV-I 0 W/m 4,6 C 6,6 C 0,0 km/h (0 Bft) 0,00 %
18.10.2014 06:15 6,6 C 87 % 1023,4 hPa 0,0 l/m 0,0 km/h (0 Bft) S-SW 202 0 min 0,000 mm 0,0 UV-I 0 W/m 4,6 C 6,6 C 0,0 km/h (0 Bft) 0,00 %
18.10.2014 06:30 6,4 C 88 % 1023,5 hPa 0,0 l/m 0,0 km/h (0 Bft) S-SW 192 0 min 0,000 mm 0,0 UV-I 0 W/m 4,6 C 6,4 C 0,0 km/h (0 Bft) 0,00 %
18.10.2014 06:45 6,2 C 88 % 1023,5 hPa 0,0 l/m 0,0 km/h (0 Bft) S 175 0 min 0,000 mm 0,0 UV-I 0 W/m 4,4 C 6,2 C 0,0 km/h (0 Bft) 0,00 %
18.10.2014 07:00 6,4 C 87 % 1023,6 hPa 0,0 l/m 0,0 km/h (0 Bft) S 173 0 min 0,000 mm 0,0 UV-I 0 W/m 4,4 C 6,4 C 0,0 km/h (0 Bft) 0,00 %
18.10.2014 07:15 6,4 C 87 % 1023,6 hPa 0,0 l/m 0,0 km/h (0 Bft) SO 139 0 min 0,000 mm 0,0 UV-I 0 W/m 4,4 C 6,4 C 0,0 km/h (0 Bft) 0,00 %
18.10.2014 07:30 6,5 C 87 % 1023,7 hPa 0,0 l/m 0,0 km/h (0 Bft) S-SW 196 0 min 0,000 mm 0,0 UV-I 1 W/m 4,5 C 6,5 C 0,0 km/h (0 Bft) 0,00 %
18.10.2014 07:45 6,5 C 87 % 1023,8 hPa 0,0 l/m 0,0 km/h (0 Bft) SW 220 0 min 0,000 mm 0,0 UV-I 19 W/m 4,5 C 6,5 C 0,0 km/h (0 Bft) 0,00 %
18.10.2014 08:00 7,0 C 88 % 1023,9 hPa 0,0 l/m 0,0 km/h (0 Bft) S 189 0 min 0,000 mm 1,0 UV-I 34 W/m 5,2 C 7,0 C 0,0 km/h (0 Bft) 0,00 %
18.10.2014 08:15 7,8 C 88 % 1023,9 hPa 0,0 l/m 0,4 km/h (0 Bft) NO 43 0 min 0,000 mm 1,0 UV-I 49 W/m 5,9 C 7,8 C 4,0 km/h (1 Bft) 0,00 %
18.10.2014 08:30 7,0 C 88 % 1024,5 hPa 0,0 l/m 0,0 km/h (0 Bft) N 353 0 min 0,000 mm 1,0 UV-I 61 W/m 5,2 C 7,0 C 0,0 km/h (0 Bft) 0,00 %
18.10.2014 08:45 7,5 C 87 % 1024,5 hPa 0,0 l/m 0,0 km/h (0 Bft) SW 226 0 min 0,000 mm 1,0 UV-I 80 W/m 5,5 C 7,5 C 0,0 km/h (0 Bft) 0,00 %
18.10.2014 09:00 8,1 C 87 % 1024,3 hPa 0,0 l/m 0,0 km/h (0 Bft) O-SO 107 0 min 0,000 mm 1,0 UV-I 93 W/m 6,1 C 8,1 C 0,0 km/h (0 Bft) 0,00 %
18.10.2014 09:15 8,9 C 86 % 1024,4 hPa 0,0 l/m 0,0 km/h (0 Bft) S 178 0 min 0,000 mm 1,0 UV-I 116 W/m 6,7 C 8,9 C 0,0 km/h (0 Bft) 0,00 %
18.10.2014 09:30 9,1 C 86 % 1024,4 hPa 0,0 l/m 0,0 km/h (0 Bft) W 265 0 min 0,000 mm 2,0 UV-I 139 W/m 6,9 C 9,1 C 0,0 km/h (0 Bft) 0,00 %
18.10.2014 09:45 9,4 C 86 % 1024,5 hPa 0,0 l/m 0,0 km/h (0 Bft) W-SW 255 0 min 0,000 mm 2,0 UV-I 153 W/m 7,2 C 9,4 C 0,0 km/h (0 Bft) 0,00 %
18.10.2014 10:00 9,9 C 86 % 1024,5 hPa 0,0 l/m 0,0 km/h (0 Bft) SO 133 0 min 0,000 mm 2,0 UV-I 121 W/m 7,7 C 9,9 C 0,0 km/h (0 Bft) 0,00 %
18.10.2014 10:15 9,9 C 86 % 1024,6 hPa 0,0 l/m 1,8 km/h (1 Bft) SO 139 0 min 0,000 mm 2,0 UV-I 149 W/m 7,7 C 9,9 C 4,0 km/h (1 Bft) 0,00 %
18.10.2014 10:30 10,3 C 86 % 1025,0 hPa 0,0 l/m 0,0 km/h (0 Bft) W 270 0 min 0,000 mm 2,0 UV-I 182 W/m 8,1 C 10,3 C 0,0 km/h (0 Bft) 0,00 %
18.10.2014 10:45 10,4 C 85 % 1024,9 hPa 0,0 l/m 2,9 km/h (1 Bft) O-SO 103 0 min 0,000 mm 2,0 UV-I 151 W/m 8,0 C 10,4 C 4,0 km/h (1 Bft) 0,00 %
18.10.2014 11:00 10,9 C 84 % 1024,7 hPa 0,0 l/m 0,4 km/h (0 Bft) O-SO 106 0 min 0,000 mm 2,0 UV-I 192 W/m 8,3 C 10,9 C 4,0 km/h (1 Bft) 0,00 %
18.10.2014 11:15 11,1 C 83 % 1024,3 hPa 0,0 l/m 0,0 km/h (0 Bft) O-NO 73 0 min 0,000 mm 2,0 UV-I 179 W/m 8,3 C 11,1 C 0,0 km/h (0 Bft) 0,00 %
18.10.2014 11:30 11,4 C 81 % 1024,5 hPa 0,0 l/m 0,0 km/h (0 Bft) O 89 0 min 0,000 mm 2,0 UV-I 217 W/m 8,3 C 11,4 C 0,0 km/h (0 Bft) 0,00 %
18.10.2014 11:45 11,6 C 80 % 1024,5 hPa 0,0 l/m 0,0 km/h (0 Bft) O-SO 105 0 min 0,000 mm 2,0 UV-I 195 W/m 8,3 C 11,6 C 0,0 km/h (0 Bft) 0,00 %
18.10.2014 12:00 11,3 C 82 % 1024,7 hPa 0,0 l/m 1,4 km/h (1 Bft) O-SO 107 0 min 0,000 mm 2,0 UV-I 174 W/m 8,3 C 11,3 C 4,0 km/h (1 Bft) 0,00 %
18.10.2014 12:15 11,7 C 81 % 1024,4 hPa 0,0 l/m 1,4 km/h (1 Bft) NO 47 0 min 0,000 mm 2,0 UV-I 172 W/m 8,5 C 11,7 C 4,0 km/h (1 Bft) 0,00 %
18.10.2014 12:30 11,8 C 82 % 1024,3 hPa 0,0 l/m 0,4 km/h (0 Bft) NO 46 0 min 0,000 mm 2,0 UV-I 164 W/m 8,8 C 11,8 C 4,0 km/h (1 Bft) 0,00 %
18.10.2014 12:45 12,0 C 82 % 1024,3 hPa 0,0 l/m 0,0 km/h (0 Bft) SO 136 0 min 0,000 mm 2,0 UV-I 192 W/m 9,0 C 12,0 C 0,0 km/h (0 Bft) 0,00 %
18.10.2014 13:00 12,3 C 80 % 1024,3 hPa 0,0 l/m 0,4 km/h (0 Bft) O-NO 59 0 min 0,000 mm 2,0 UV-I 185 W/m 8,9 C 12,3 C 4,0 km/h (1 Bft) 0,00 %
18.10.2014 13:15 12,1 C 81 % 1024,2 hPa 0,0 l/m 0,4 km/h (0 Bft) N 350 0 min 0,000 mm 2,0 UV-I 156 W/m 8,9 C 12,1 C 4,0 km/h (1 Bft) 0,00 %
18.10.2014 13:30 12,5 C 81 % 1023,9 hPa 0,0 l/m 5,4 km/h (1 Bft) O-SO 117 0 min 0,000 mm 3,0 UV-I 197 W/m 9,3 C 12,5 C 7,9 km/h (2 Bft) 0,00 %
18.10.2014 13:45 12,7 C 80 % 1023,9 hPa 0,0 l/m 4,7 km/h (1 Bft) O 94 0 min 0,000 mm 2,0 UV-I 205 W/m 9,3 C 12,7 C 7,9 km/h (2 Bft) 0,00 %
18.10.2014 14:00 12,7 C 80 % 1023,5 hPa 0,0 l/m 0,0 km/h (0 Bft) S 182 0 min 0,000 mm 2,0 UV-I 171 W/m 9,3 C 12,7 C 0,0 km/h (0 Bft) 0,00 %
18.10.2014 14:15 13,1 C 78 % 1023,4 hPa 0,0 l/m 5,4 km/h (1 Bft) O-SO 120 0 min 0,000 mm 2,0 UV-I 225 W/m 9,4 C 13,1 C 7,9 km/h (2 Bft) 0,00 %
18.10.2014 14:30 12,9 C 78 % 1023,2 hPa 0,0 l/m 0,0 km/h (0 Bft) O 101 0 min 0,000 mm 2,0 UV-I 189 W/m 9,2 C 12,9 C 0,0 km/h (0 Bft) 0,00 %
18.10.2014 14:45 12,9 C 79 % 1022,8 hPa 0,0 l/m 0,4 km/h (0 Bft) O 81 0 min 0,000 mm 2,0 UV-I 142 W/m 9,3 C 12,9 C 4,0 km/h (1 Bft) 0,00 %
18.10.2014 15:00 13,2 C 78 % 1022,6 hPa 0,0 l/m 0,0 km/h (0 Bft) SO 129 0 min 0,000 mm 2,0 UV-I 114 W/m 9,4 C 13,2 C 0,0 km/h (0 Bft) 0,00 %
18.10.2014 15:15 13,2 C 79 % 1022,4 hPa 0,0 l/m 0,0 km/h (0 Bft) O-SO 123 0 min 0,000 mm 1,0 UV-I 97 W/m 9,6 C 13,2 C 0,0 km/h (0 Bft) 0,00 %
18.10.2014 15:30 13,6 C 78 % 1022,3 hPa 0,0 l/m 0,4 km/h (0 Bft) O-NO 58 0 min 0,000 mm 1,0 UV-I 91 W/m 9,8 C 13,6 C 4,0 km/h (1 Bft) 0,00 %
18.10.2014 15:45 14,0 C 76 % 1022,0 hPa 0,0 l/m 0,0 km/h (0 Bft) O 99 15 min 0,000 mm 1,0 UV-I 333 W/m 9,8 C 14,0 C 0,0 km/h (0 Bft) 0,00 %
18.10.2014 16:00 14,2 C 75 % 1021,6 hPa 0,0 l/m 3,2 km/h (1 Bft) O-SO 115 15 min 0,000 mm 1,0 UV-I 310 W/m 9,8 C 14,2 C 4,0 km/h (1 Bft) 0,00 %
18.10.2014 16:15 14,2 C 76 % 1022,0 hPa 0,0 l/m 0,0 km/h (0 Bft) S 172 15 min 0,000 mm 1,0 UV-I 316 W/m 10,0 C 14,2 C 0,0 km/h (0 Bft) 0,00 %
18.10.2014 16:30 14,3 C 74 % 1022,0 hPa 0,0 l/m 0,0 km/h (0 Bft) O 100 15 min 0,000 mm 1,0 UV-I 345 W/m 9,7 C 14,3 C 0,0 km/h (0 Bft) 0,00 %
18.10.2014 16:45 14,4 C 74 % 1021,9 hPa 0,0 l/m 0,0 km/h (0 Bft) O-NO 76 15 min 0,000 mm 1,0 UV-I 311 W/m 9,8 C 14,4 C 0,0 km/h (0 Bft) 0,00 %
18.10.2014 17:00 14,3 C 76 % 1021,9 hPa 0,0 l/m 0,0 km/h (0 Bft) S-SO 165 15 min 0,000 mm 1,0 UV-I 300 W/m 10,1 C 14,3 C 0,0 km/h (0 Bft) 0,00 %
18.10.2014 17:15 13,9 C 77 % 1022,4 hPa 0,0 l/m 0,0 km/h (0 Bft) S 173 15 min 0,000 mm 0,0 UV-I 290 W/m 9,9 C 13,9 C 0,0 km/h (0 Bft) 0,00 %
18.10.2014 17:30 13,5 C 80 % 1022,2 hPa 0,0 l/m 0,0 km/h (0 Bft) S 173 15 min 0,000 mm 0,0 UV-I 299 W/m 10,1 C 13,5 C 0,0 km/h (0 Bft) 0,00 %
18.10.2014 17:45 13,3 C 80 % 1022,3 hPa 0,0 l/m 0,0 km/h (0 Bft) S 173 15 min 0,000 mm 0,0 UV-I 101 W/m 9,9 C 13,3 C 0,0 km/h (0 Bft) 0,00 %
18.10.2014 18:00 12,9 C 81 % 1022,5 hPa 0,0 l/m 0,0 km/h (0 Bft) S 174 0 min 0,000 mm 0,0 UV-I 16 W/m 9,7 C 12,9 C 0,0 km/h (0 Bft) 0,00 %
18.10.2014 18:15 12,5 C 81 % 1022,6 hPa 0,0 l/m 0,0 km/h (0 Bft) S 177 0 min 0,000 mm 0,0 UV-I 0 W/m 9,3 C 12,5 C 0,0 km/h (0 Bft) 0,00 %
18.10.2014 18:30 11,9 C 82 % 1022,8 hPa 0,0 l/m 0,0 km/h (0 Bft) S 178 0 min 0,000 mm 0,0 UV-I 0 W/m 8,9 C 11,9 C 0,0 km/h (0 Bft) 0,00 %
18.10.2014 18:45 11,6 C 84 % 1023,1 hPa 0,0 l/m 0,0 km/h (0 Bft) S 178 0 min 0,000 mm 0,0 UV-I 0 W/m 9,0 C 11,6 C 0,0 km/h (0 Bft) 0,00 %
18.10.2014 19:00 11,3 C 84 % 1023,0 hPa 0,0 l/m 0,0 km/h (0 Bft) S 178 0 min 0,000 mm 0,0 UV-I 0 W/m 8,7 C 11,3 C 0,0 km/h (0 Bft) 0,00 %
18.10.2014 19:15 11,1 C 84 % 1023,2 hPa 0,0 l/m 0,0 km/h (0 Bft) S 178 0 min 0,000 mm 0,0 UV-I 0 W/m 8,5 C 11,1 C 0,0 km/h (0 Bft) 0,00 %
18.10.2014 19:30 10,8 C 85 % 1023,4 hPa 0,0 l/m 0,0 km/h (0 Bft) S 178 0 min 0,000 mm 0,0 UV-I 0 W/m 8,4 C 10,8 C 0,0 km/h (0 Bft) 0,00 %
18.10.2014 19:45 10,4 C 85 % 1023,4 hPa 0,0 l/m 0,0 km/h (0 Bft) S 178 0 min 0,000 mm 0,0 UV-I 0 W/m 8,0 C 10,4 C 0,0 km/h (0 Bft) 0,00 %
18.10.2014 20:00 10,3 C 85 % 1023,3 hPa 0,0 l/m 0,0 km/h (0 Bft) S 178 0 min 0,000 mm 0,0 UV-I 0 W/m 7,9 C 10,3 C 0,0 km/h (0 Bft) 0,00 %
18.10.2014 20:15 10,3 C 85 % 1023,3 hPa 0,0 l/m 0,0 km/h (0 Bft) S 178 0 min 0,000 mm 0,0 UV-I 0 W/m 7,9 C 10,3 C 0,0 km/h (0 Bft) 0,00 %
18.10.2014 20:30 10,2 C 85 % 1023,3 hPa 0,0 l/m 0,0 km/h (0 Bft) S 178 0 min 0,000 mm 0,0 UV-I 0 W/m 7,8 C 10,2 C 0,0 km/h (0 Bft) 0,00 %
18.10.2014 20:45 10,1 C 86 % 1023,3 hPa 0,0 l/m 0,0 km/h (0 Bft) S 178 0 min 0,000 mm 0,0 UV-I 0 W/m 7,9 C 10,1 C 0,0 km/h (0 Bft) 0,00 %
18.10.2014 21:00 10,1 C 86 % 1023,3 hPa 0,0 l/m 0,0 km/h (0 Bft) S 172 0 min 0,000 mm 0,0 UV-I 0 W/m 7,9 C 10,1 C 0,0 km/h (0 Bft) 0,00 %
18.10.2014 21:15 10,0 C 86 % 1023,6 hPa 0,0 l/m 0,0 km/h (0 Bft) S 172 0 min 0,000 mm 0,0 UV-I 0 W/m 7,8 C 10,0 C 0,0 km/h (0 Bft) 0,00 %
18.10.2014 21:30 9,9 C 86 % 1023,6 hPa 0,0 l/m 0,0 km/h (0 Bft) S 173 0 min 0,000 mm 0,0 UV-I 0 W/m 7,7 C 9,9 C 0,0 km/h (0 Bft) 0,00 %
18.10.2014 21:45 10,1 C 86 % 1023,6 hPa 0,0 l/m 0,0 km/h (0 Bft) S-SO 159 0 min 0,000 mm 0,0 UV-I 0 W/m 7,9 C 10,1 C 0,0 km/h (0 Bft) 0,00 %
18.10.2014 22:00 9,9 C 86 % 1023,7 hPa 0,0 l/m 0,0 km/h (0 Bft) S-SW 206 0 min 0,000 mm 0,0 UV-I 0 W/m 7,7 C 9,9 C 0,0 km/h (0 Bft) 0,00 %
18.10.2014 22:15 9,1 C 86 % 1023,9 hPa 0,0 l/m 0,0 km/h (0 Bft) S-SW 206 0 min 0,000 mm 0,0 UV-I 0 W/m 6,9 C 9,1 C 0,0 km/h (0 Bft) 0,00 %
18.10.2014 22:30 8,7 C 86 % 1023,8 hPa 0,0 l/m 0,0 km/h (0 Bft) S-SW 206 0 min 0,000 mm 0,0 UV-I 0 W/m 6,5 C 8,7 C 0,0 km/h (0 Bft) 0,00 %
18.10.2014 22:45 8,5 C 87 % 1024,1 hPa 0,0 l/m 0,0 km/h (0 Bft) S-SW 206 0 min 0,000 mm 0,0 UV-I 0 W/m 6,5 C 8,5 C 0,0 km/h (0 Bft) 0,00 %
18.10.2014 23:00 8,3 C 87 % 1024,0 hPa 0,0 l/m 0,0 km/h (0 Bft) SO 133 0 min 0,000 mm 0,0 UV-I 0 W/m 6,3 C 8,3 C 0,0 km/h (0 Bft) 0,00 %
18.10.2014 23:15 8,1 C 87 % 1024,1 hPa 0,0 l/m 0,0 km/h (0 Bft) S-SW 194 0 min 0,000 mm 0,0 UV-I 0 W/m 6,1 C 8,1 C 0,0 km/h (0 Bft) 0,00 %
18.10.2014 23:30 7,9 C 87 % 1023,8 hPa 0,0 l/m 0,0 km/h (0 Bft) S-SW 194 0 min 0,000 mm 0,0 UV-I 0 W/m 5,9 C 7,9 C 0,0 km/h (0 Bft) 0,00 %
18.10.2014 23:45 7,7 C 87 % 1023,7 hPa 0,0 l/m 0,0 km/h (0 Bft) S-SW 194 0 min 0,000 mm 0,0 UV-I 0 W/m 5,7 C 7,7 C 0,0 km/h (0 Bft) 0,00 %
_ Min-Zeit 06:45 16:30 00:30 - 00:00 - - - - - - 06:45 06:45 00:00 00:00
Minimum _ 6,2 C 74 % 1020,9 hPa - 0,0 km/h (0 Bft) - - - - - - 4,4 C 6,2 C 0,0 km/h (0 Bft) 0,00 %
_ Max-Zeit 16:45 04:45 10:30 03:45 13:30 - - 15:45 00:00 13:30 16:30 17:00 16:45 13:30 00:00
Maximum _ 14,4 C 88 % 1025,0 hPa 0,3 l/m 5,4 km/h
O-SO (1 Bft)
- - 15 min 0,000 mm 3,0 UV-I 345 W/m 10,1 C 14,4 C 7,9 km/h
O-SO (2 Bft)
0,00 %
Durchschnitt _ 10,1 C 84 % 1023,1 hPa #0,3 l/m 0,3 km/h (0 Bft) O-SO - #2:15 h #0,000 mm 1,6 UV-I 168 W/m 7,5 C 10,1 C 0,8 km/h (0 Bft) 0,00 %